Lid_Strength_Index
3 4 4 5 6 6 6 6 7 7 7 7 7 7 6 6 6 6 6 6 6 6 5 4 4 3 4 6 9 5 0 1 4 5 6 7 8 7 9 8 7 8 8 7 6 6 6
3 4 5 5 6 6 6 6 7 7 7 7 7 7 6 6 6 6 6 6 6 6 5 4 3 3 3 8 5 2 3 4 3 4 4 4 6 7 8 8 9 8 8 8 7 7 6
3 4 5 5 6 6 6 7 7 7 7 7 7 7 7 6 6 6 6 6 6 5 4 3 3 3 4 7 3 3 4 5 4 4 6 5 4 6 7 9 6 7 9 8 8 7 8
4 4 5 5 6 6 7 7 7 7 7 7 7 7 7 7 7 7 7 6 6 5 3 3 2 2 6 4 3 4 4 4 4 4 5 4 4 5 6 6 8 9 9 13 10 8 7
4 5 5 6 6 7 6 7 7 8 8 8 8 7 7 7 7 6 6 6 5 4 3 3 3 4 8 3 5 4 4 6 5 4 4 4 4 6 6 8 10 10 13 12 11 8 8
5 5 5 6 6 6 7 7 7 8 8 8 8 7 7 7 6 6 6 6 4 5 4 3 3 7 6 8 6 5 4 4 6 5 5 6 6 8 8 9 14 12 11 10 11 10 8
5 5 5 5 6 6 7 7 8 8 8 8 7 7 7 7 7 6 6 6 8 7 7 9 9 8 7 5 5 6 4 5 5 6 9 7 10 11 9 8 8 9 10 11 10 8 9
6 6 6 6 6 7 7 7 8 8 8 8 7 7 7 7 7 6 6 9 9 8 10 7 7 7 6 5 8 6 4 7 8 10 8 9 11 8 8 8 9 10 10 11 9 8 8
6 6 6 6 6 7 7 8 8 8 8 8 8 7 7 7 7 7 8 8 5 5 8 9 7 8 8 6 8 8 6 7 9 10 10 11 10 8 9 10 10 10 11 11 10 8 8
6 6 6 6 7 7 7 8 8 8 7 7 7 7 7 7 8 6 7 6 5 4 10 11 9 7 7 7 8 6 5 7 9 10 9 10 8 9 9 10 10 12 9 9 9 10 13
6 6 6 6 6 7 7 8 8 8 7 7 7 7 7 7 7 7 7 5 4 4 15 11 10 6 7 8 8 7 5 6 9 9 9 11 10 10 10 10 9 10 8 9 9 11 11
6 5 6 6 6 7 7 8 7 7 7 8 7 7 7 6 5 6 4 4 5 11 16 12 10 10 10 8 8 7 7 5 5 8 8 9 7 7 8 7 7 7 8 9 9 10 15
6 6 7 7 7 7 8 7 7 7 8 8 7 7 7 6 7 5 4 5 12 14 11 13 12 10 10 10 9 9 9 9 10 13 13 10 9 7 6 9 7 8 11 15 16 15 16
5 6 7 7 7 7 8 7 7 8 8 8 7 7 5 5 4 4 5 9 15 13 13 10 11 10 11 10 10 9 9 11 8 9 12 13 14 9 7 9 11 12 12 15 19 17 15
5 6 7 7 7 7 7 7 7 8 8 8 7 6 5 4 4 4 7 12 13 12 11 12 11 12 12 10 10 10 10 10 9 8 13 13 13 8 7 7 8 12 12 9 13 12 14
6 6 6 7 7 7 7 7 7 8 8 8 8 7 6 4 3 5 9 12 12 11 11 11 13 12 13 11 11 10 11 8 9 7 6 9 15 9 9 8 7 10 8 13 12 17 18
6 6 7 6 6 7 7 7 7 8 7 7 8 9 6 4 4 7 11 11 11 9 10 11 11 12 11 11 10 11 10 8 7 7 6 8 11 12 10 12 14 13 14 11 11 12 16
5 6 6 6 6 6 7 7 7 7 7 9 8 11 5 4 9 8 10 10 11 10 8 10 9 10 10 10 11 10 10 9 6 6 9 8 11 14 13 10 8 9 12 12 13 14 12
5 5 6 6 6 6 6 7 7 7 7 7 10 9 5 5 12 11 10 10 10 10 10 10 10 9 8 10 11 10 9 6 6 7 8 8 12 16 14 11 10 11 10 10 11 11 13
4 5 5 5 5 6 6 6 6 7 6 7 9 11 9 8 8 10 10 11 11 9 10 9 9 8 9 10 8 10 10 7 5 6 6 6 10 14 17 15 11 13 12 11 12 15 13
4 4 4 4 5 5 5 6 5 6 6 7 8 10 8 12 10 9 9 10 11 12 9 9 9 9 10 11 10 11 9 8 6 5 7 7 13 12 11 10 10 11 11 12 13 11 15
3 3 4 4 4 4 5 5 4 5 5 7 9 10 8 9 8 10 10 11 11 10 10 10 10 9 9 10 10 11 9 8 9 7 8 7 12 11 12 10 10 12 12 13 11 10 10
2 2 3 3 4 3 4 4 4 4 4 8 6 6 8 9 9 10 10 10 10 9 9 8 9 9 10 9 8 7 6 6 6 8 9 9 11 13 15 11 11 15 14 12 13 11 11
2 2 2 3 3 3 3 3 3 3 3 5 5 6 9 11 10 10 9 9 9 9 9 8 7 9 7 5 5 6 6 6 6 7 6 9 10 12 15 13 19 13 8 9 10 11 10
2 2 2 2 2 3 3 2 2 2 2 5 4 6 8 10 9 10 9 9 8 8 9 8 7 6 5 6 9 10 10 9 8 7 7 7 9 13 15 15 13 12 10 10 11 12 9
2 2 2 2 2 2 3 2 2 2 2 4 3 3 6 9 10 8 9 8 10 9 9 8 5 4 5 8 9 13 14 11 12 10 7 8 8 12 14 17 17 13 9 7 7 15 9
0 1 2 2 2 2 2 2 2 2 2 3 4 2 5 8 7 7 9 9 7 8 9 8 7 7 5 9 12 12 13 10 13 14 12 12 11 14 14 15 14 10 8 6 15 14 8
0 0 1 1 1 2 2 2 2 2 2 3 4 2 4 7 6 5 6 7 7 7 9 7 8 7 8 10 10 11 12 10 11 10 11 13 14 14 14 15 17 9 8 13 10 9 9
2 0 0 0 0 1 1 1 1 1 1 1 4 1 1 4 6 3 3 3 4 5 7 6 7 7 7 9 9 9 11 9 10 13 9 14 12 14 13 13 9 9 10 10 9 10 10